Weather History for Danville, KY

Change the Weather History Date:

Saturday, March 2, 2013

  Actual Average (KLEX) Record (KLEX)
Temperature  
Mean Temperature -2 °C 5 °C  
Max Temperature 0 °C 10 °C 23 °C (1976)
Min Temperature -3 °C 0 °C -16 °C (1980)
Degree Days  
Heating Degree Days 36 24  
Month to date heating degree days 48  
Since 1 July heating degree days 3619  
Cooling Degree Days 0 0  
Month to date cooling degree days 0  
Year to date cooling degree days 0  
Moisture  
Dew Point -3 °C    
Average Humidity 86    
Maximum Humidity 100    
Minimum Humidity 74    
Precipitation  
Precipitation 0.00 mm 3.05 mm 4.78 mm (1940)
Month to date precipitation 0.24  
Year to date precipitation 6.64  
Snow  
Snow 0.00 cm 0.00 cm 16.51 cm (1960)
Month to date snowfall 0.1  
Since 1 July snowfall 11.4  
Snow Depth -    
Sea Level Pressure  
Sea Level Pressure 1017 hPa    
Wind  
Wind Speed 11 km/h (North)    
Max Wind Speed 21 km/h    
Max Gust Speed 26 km/h    
Visibility 13 kilometers    
Events Snow    
T = Trace of Precipitation, MM = Missing Value Source: NWS Daily Summary

Daily Weather History Graph

Daily Weather History Graph

Search for Another Location

Airport:

Trip Planner

Search our weather history database for the weather conditions in past years. The results will help you decide how hot, cold, wet, or windy it might be!

Date:

Astronomy

Mar. 02, 2013 Rise Set
Actual Time 7:08 AM EST 6:34 PM EST
Civil Twilight 6:42 AM EST 7:00 PM EST
Nautical Twilight 6:12 AM EST 7:30 PM EST
Astronomical Twilight 5:41 AM EST 8:01 PM EST
Moon No Moon Rise 9:43 AM EST (3/2)
Length of Visible Light 12h 17m
Length of Day
11h 25m
Waning Gibbous, 74% of the Moon is Illuminated
Mar 2
Waning Gibbous
Mar 4
Last Quarter
Mar 11
New
Mar 19
First Quarter
Mar 27
Full

Hourly Weather History & Observations

Time (EST) Temp. Windchill Dew Point Humidity Pressure Visibility Wind Dir Wind Speed Gust Speed Precip Events Conditions
12:15 AM 0.0 °C -2.5 °C 0.0 °C 100% 1015.5 hPa 8.0 km NW 7.4 km/h / 2.1 m/s - N/A Snow Light Snow
12:35 AM 0.0 °C -1.8 °C 0.0 °C 100% 1015.8 hPa 8.0 km NW 5.6 km/h / 1.5 m/s - N/A Snow Light Snow
12:55 AM 0.0 °C -3.1 °C 0.0 °C 100% 1015.5 hPa 4.8 km NNW 9.3 km/h / 2.6 m/s - N/A Snow Light Snow
1:15 AM 0.0 °C -3.1 °C 0.0 °C 100% 1015.5 hPa 4.8 km NE 9.3 km/h / 2.6 m/s - N/A Snow Light Snow
1:35 AM 0.0 °C -2.5 °C 0.0 °C 100% 1015.5 hPa 2.8 km NE 7.4 km/h / 2.1 m/s - N/A Snow Light Snow
1:55 AM 0.0 °C -2.5 °C 0.0 °C 100% 1015.5 hPa 4.0 km NE 7.4 km/h / 2.1 m/s - N/A Snow Light Snow
2:15 AM 0.0 °C -3.6 °C 0.0 °C 100% 1015.5 hPa 8.0 km NE 11.1 km/h / 3.1 m/s - N/A   Overcast
2:35 AM 0.0 °C -4.7 °C -1.0 °C 93% 1015.5 hPa 11.3 km NE 16.7 km/h / 4.6 m/s - N/A   Overcast
2:55 AM 0.0 °C -4.0 °C -1.0 °C 93% 1015.5 hPa 16.1 km NE 13.0 km/h / 3.6 m/s - N/A   Overcast
3:15 AM 0.0 °C -4.7 °C -2.0 °C 87% 1015.1 hPa 16.1 km NE 16.7 km/h / 4.6 m/s - N/A   Overcast
3:35 AM -1.0 °C -5.2 °C -2.0 °C 93% 1015.5 hPa 11.3 km NE 13.0 km/h / 3.6 m/s - N/A Snow Light Snow
3:55 AM -1.0 °C -4.8 °C -2.0 °C 93% 1015.1 hPa 11.3 km NNE 11.1 km/h / 3.1 m/s - N/A Snow Light Snow
4:15 AM -1.0 °C -4.8 °C -2.0 °C 93% 1015.1 hPa 16.1 km NNE 11.1 km/h / 3.1 m/s - N/A Snow Light Snow
4:35 AM -1.0 °C -4.8 °C -2.0 °C 93% 1015.1 hPa 11.3 km NNE 11.1 km/h / 3.1 m/s - N/A Snow Light Snow
4:55 AM -1.0 °C -4.8 °C -2.0 °C 93% 1015.5 hPa 8.0 km NNE 11.1 km/h / 3.1 m/s - N/A Snow Light Snow
5:55 AM -1.0 °C -4.8 °C -2.0 °C 93% 1015.8 hPa 8.0 km NNE 11.1 km/h / 3.1 m/s - N/A Snow Light Snow
6:15 AM -1.0 °C -5.6 °C -3.0 °C 86% 1015.8 hPa 11.3 km NNE 14.8 km/h / 4.1 m/s - N/A Snow Light Snow
6:35 AM -1.0 °C -5.2 °C -3.0 °C 86% 1015.8 hPa 16.1 km NNE 13.0 km/h / 3.6 m/s - N/A   Overcast
6:55 AM -1.0 °C -5.2 °C -3.0 °C 86% 1015.8 hPa 16.1 km NNE 13.0 km/h / 3.6 m/s - N/A   Overcast
7:15 AM -1.0 °C -5.6 °C -4.0 °C 80% 1016.1 hPa 16.1 km North 14.8 km/h / 4.1 m/s - N/A   Overcast
7:35 AM -2.0 °C -6.0 °C -4.0 °C 86% 1016.5 hPa 16.1 km North 11.1 km/h / 3.1 m/s - N/A   Overcast
7:55 AM -2.0 °C -6.4 °C -3.0 °C 93% 1016.5 hPa 6.4 km North 13.0 km/h / 3.6 m/s - N/A Snow Light Snow
8:15 AM -1.0 °C -6.2 °C -4.0 °C 80% 1016.5 hPa 16.1 km North 18.5 km/h / 5.1 m/s - N/A Snow Light Snow
8:35 AM -1.0 °C -5.9 °C -4.0 °C 80% 1016.8 hPa 16.1 km North 16.7 km/h / 4.6 m/s - N/A Snow Light Snow
8:55 AM -1.0 °C -5.6 °C -3.0 °C 86% 1016.8 hPa 16.1 km North 14.8 km/h / 4.1 m/s - N/A Snow Light Snow
9:15 AM -1.0 °C -5.2 °C -3.0 °C 86% 1016.8 hPa 8.0 km North 13.0 km/h / 3.6 m/s - N/A Snow Light Snow
9:35 AM -1.0 °C -5.2 °C -3.0 °C 86% 1016.8 hPa 16.1 km North 13.0 km/h / 3.6 m/s - N/A Snow Light Snow
9:55 AM -1.0 °C -5.2 °C -3.0 °C 86% 1017.2 hPa 11.3 km North 13.0 km/h / 3.6 m/s - N/A Snow Light Snow
10:15 AM -1.0 °C -5.6 °C -3.0 °C 86% 1017.2 hPa 16.1 km North 14.8 km/h / 4.1 m/s - N/A Snow Light Snow
10:35 AM -1.0 °C -5.2 °C -4.0 °C 80% 1017.2 hPa 16.1 km North 13.0 km/h / 3.6 m/s - N/A   Overcast
10:55 AM -1.0 °C -5.6 °C -4.0 °C 80% 1017.2 hPa 16.1 km NNW 14.8 km/h / 4.1 m/s - N/A   Overcast
11:15 AM -1.0 °C -5.9 °C -4.0 °C 80% 1017.5 hPa 16.1 km North 16.7 km/h / 4.6 m/s - N/A   Overcast
11:35 AM -1.0 °C -5.6 °C -3.0 °C 86% 1017.5 hPa 16.1 km NNW 14.8 km/h / 4.1 m/s - N/A   Overcast
11:55 AM -1.0 °C -5.2 °C -3.0 °C 86% 1017.5 hPa 11.3 km NNW 13.0 km/h / 3.6 m/s - N/A   Overcast
12:15 PM -1.0 °C -5.6 °C -3.0 °C 86% 1017.5 hPa 8.0 km North 14.8 km/h / 4.1 m/s - N/A Snow Light Snow
12:35 PM -1.0 °C -6.2 °C -3.0 °C 86% 1017.5 hPa 4.0 km North 18.5 km/h / 5.1 m/s 25.9 km/h / 7.2 m/s N/A Snow Light Snow
12:55 PM -1.0 °C -5.9 °C -3.0 °C 86% 1017.5 hPa 4.0 km NNW 16.7 km/h / 4.6 m/s - N/A Snow Light Snow
1:15 PM -1.0 °C -5.6 °C -3.0 °C 86% 1017.2 hPa 4.8 km NW 14.8 km/h / 4.1 m/s - N/A Snow Light Snow
1:35 PM -1.0 °C -5.9 °C -3.0 °C 86% 1017.2 hPa 6.4 km NNW 16.7 km/h / 4.6 m/s - N/A Snow Light Snow
1:55 PM -1.0 °C -6.5 °C -3.0 °C 86% 1017.2 hPa 6.4 km North 20.4 km/h / 5.7 m/s - N/A Snow Light Snow
2:15 PM -1.0 °C -5.6 °C -3.0 °C 86% 1017.2 hPa 11.3 km NNW 14.8 km/h / 4.1 m/s - N/A Snow Light Snow
2:35 PM -1.0 °C -5.9 °C -4.0 °C 80% 1017.2 hPa 6.4 km NW 16.7 km/h / 4.6 m/s - N/A Snow Light Snow
2:55 PM -1.0 °C -5.6 °C -4.0 °C 80% 1017.2 hPa 11.3 km NNW 14.8 km/h / 4.1 m/s - N/A Snow Light Snow
3:15 PM -1.0 °C -5.6 °C -5.0 °C 75% 1017.2 hPa 16.1 km NNW 14.8 km/h / 4.1 m/s - N/A Snow Light Snow
3:55 PM -1.0 °C -4.3 °C -4.0 °C 80% 1017.2 hPa 16.1 km NNW 9.3 km/h / 2.6 m/s - N/A Snow Light Snow
4:15 PM -1.0 °C -4.8 °C -4.0 °C 80% 1017.2 hPa 16.1 km NNW 11.1 km/h / 3.1 m/s - N/A Snow Light Snow
4:35 PM -1.0 °C -4.8 °C -5.0 °C 75% 1017.5 hPa 16.1 km NNW 11.1 km/h / 3.1 m/s - N/A   Overcast
4:55 PM -1.0 °C -4.8 °C -4.0 °C 80% 1017.5 hPa 11.3 km NNW 11.1 km/h / 3.1 m/s - N/A Snow Light Snow
5:15 PM -1.0 °C -5.2 °C -4.0 °C 80% 1017.5 hPa 16.1 km NNW 13.0 km/h / 3.6 m/s - N/A Snow Light Snow
5:35 PM -1.0 °C -4.8 °C -4.0 °C 80% 1017.8 hPa 8.0 km North 11.1 km/h / 3.1 m/s - N/A Snow Light Snow
5:55 PM -1.0 °C -5.6 °C -4.0 °C 80% 1017.8 hPa 16.1 km NNW 14.8 km/h / 4.1 m/s - N/A   Overcast
6:35 PM -2.0 °C -7.2 °C -4.0 °C 86% 1018.2 hPa 11.3 km North 16.7 km/h / 4.6 m/s - N/A Snow Light Snow
6:55 PM -2.0 °C -6.8 °C -4.0 °C 86% 1018.5 hPa 16.1 km North 14.8 km/h / 4.1 m/s - N/A   Overcast
7:15 PM -2.0 °C -6.4 °C -4.0 °C 86% 1018.5 hPa 16.1 km North 13.0 km/h / 3.6 m/s - N/A   Overcast
7:35 PM -2.0 °C -5.5 °C -4.0 °C 86% 1018.5 hPa 16.1 km North 9.3 km/h / 2.6 m/s - N/A Snow Light Snow
7:55 PM -2.0 °C -6.0 °C -4.0 °C 86% 1018.8 hPa 16.1 km North 11.1 km/h / 3.1 m/s - N/A Snow Light Snow
8:15 PM -2.0 °C -6.0 °C -4.0 °C 86% 1018.8 hPa 16.1 km North 11.1 km/h / 3.1 m/s - N/A   Overcast
8:35 PM -2.0 °C -6.0 °C -4.0 °C 86% 1018.8 hPa 11.3 km North 11.1 km/h / 3.1 m/s - N/A Snow Light Snow
8:55 PM -2.0 °C -4.9 °C -5.0 °C 80% 1018.8 hPa 16.1 km NNW 7.4 km/h / 2.1 m/s - N/A   Overcast
9:15 PM -2.0 °C -6.0 °C -5.0 °C 80% 1019.2 hPa 16.1 km NNW 11.1 km/h / 3.1 m/s - N/A   Overcast
9:35 PM -2.0 °C -6.0 °C -5.0 °C 80% 1019.2 hPa 16.1 km NNW 11.1 km/h / 3.1 m/s - N/A   Overcast
9:55 PM -2.0 °C -6.0 °C -5.0 °C 80% 1019.2 hPa 16.1 km NW 11.1 km/h / 3.1 m/s - N/A   Overcast
10:15 PM -2.0 °C -5.5 °C -6.0 °C 74% 1019.2 hPa 16.1 km NNW 9.3 km/h / 2.6 m/s - N/A   Overcast
10:35 PM -2.0 °C -5.5 °C -5.0 °C 80% 1018.8 hPa 16.1 km NNW 9.3 km/h / 2.6 m/s - N/A   Overcast
10:55 PM -2.0 °C -6.0 °C -5.0 °C 80% 1018.8 hPa 16.1 km WNW 11.1 km/h / 3.1 m/s - N/A   Overcast
11:15 PM -3.0 °C -7.2 °C -5.0 °C 86% 1018.8 hPa 16.1 km WNW 11.1 km/h / 3.1 m/s - N/A   Overcast
11:35 PM -3.0 °C -7.2 °C -5.0 °C 86% 1018.8 hPa 16.1 km WNW 11.1 km/h / 3.1 m/s - N/A   Overcast
11:55 PM -3.0 °C -6.0 °C -5.0 °C 86% 1018.5 hPa 16.1 km NW 7.4 km/h / 2.1 m/s - N/A   Overcast